FW8892 Weather Reports


Display with metric or nautical units.
time (UTC)temp
F
wind
direction
speed
MPH
gust
MPH
rain 1hr
in
rain 24hr
in
rain mn
in
humidity
%
barometer
mb
20260504050530 50 178 0.0 4.0 0.00 0.00 0.00 74 1015.1
20260504045529 51 0 0.0 2.0 0.00 0.00 0.00 72 1015.2
20260504045029 51 0 0.0 2.0 0.00 0.00 0.00 72 1015.3
20260504044546 52 0 0.0 2.0 0.00 0.00 0.00 71 1015.3
20260504044029 52 0 0.0 2.0 0.00 0.00 0.00 69 1015.2
20260504043529 53 0 0.0 1.0 0.00 0.00 0.00 69 1015.1
20260504043051 53 0 0.0 1.0 0.00 0.00 0.00 68 1015.2
20260504042529 54 0 0.0 0.0 0.00 0.00 0.00 68 1015.2
20260504042030 54 0 0.0 2.0 0.00 0.00 0.00 65 1015.2
20260504041543 55 0 0.0 2.0 0.00 0.00 0.00 65 1015.1
20260504041029 55 0 0.0 4.0 0.00 0.00 0.00 64 1015.0
20260504040526 55 0 1.0 5.0 0.00 0.00 0.00 63 1014.9
20260504040049 55 182 1.0 7.0 0.00 0.00 0.00 63 1014.8
20260504035530 55 193 1.0 7.0 0.00 0.00 0.00 63 1014.9
20260504035028 55 217 1.0 11.0 0.00 0.00 0.00 63 1014.8
20260504034547 55 203 3.0 15.0 0.00 0.00 0.00 63 1014.8
20260504034025 55 155 4.0 15.0 0.00 0.00 0.00 63 1014.8
20260504033528 55 202 3.0 11.0 0.00 0.00 0.00 64 1014.9
20260504033049 55 203 4.0 11.0 0.00 0.00 0.00 65 1014.7
20260504032529 54 183 4.0 10.0 0.00 0.00 0.00 66 1014.8
20260504032028 54 222 4.0 10.0 0.00 0.00 0.00 67 1014.9
20260504031548 53 190 3.0 10.0 0.00 0.00 0.00 69 1015.1
20260504031026 52 123 4.0 9.0 0.00 0.00 0.00 70 1015.1
20260504030529 51 173 3.0 7.0 0.00 0.00 0.00 72 1015.2
20260504030045 50 180 2.0 6.0 0.00 0.00 0.00 73 1015.1
20260504025526 50 157 1.0 4.0 0.00 0.00 0.00 74 1015.1
20260504025030 50 168 0.0 2.0 0.00 0.00 0.00 74 1015.3
20260504024554 50 0 0.0 1.0 0.00 0.00 0.00 74 1015.3
20260504024026 50 0 0.0 2.0 0.00 0.00 0.00 74 1015.3
20260504023529 51 0 0.0 2.0 0.00 0.00 0.00 73 1015.4
20260504023052 51 203 0.0 1.0 0.00 0.00 0.00 73 1015.4
20260504022529 51 0 0.0 0.0 0.00 0.00 0.00 72 1015.4
20260504022029 52 0 0.0 0.0 0.00 0.00 0.00 72 1015.3
20260504021547 52 0 0.0 0.0 0.00 0.00 0.00 71 1015.3
20260504021028 53 0 0.0 0.0 0.00 0.00 0.00 70 1015.5
20260504020528 53 0 0.0 0.0 0.00 0.00 0.00 69 1015.4
20260504020047 54 0 0.0 0.0 0.00 0.00 0.00 68 1015.4
20260504015528 54 0 0.0 0.0 0.00 0.00 0.00 67 1015.5
20260504015030 55 0 0.0 0.0 0.00 0.00 0.00 65 1015.4
20260504014547 56 0 0.0 0.0 0.00 0.00 0.00 65 1015.5
20260504014030 56 0 0.0 1.0 0.00 0.00 0.00 63 1015.4
20260504013529 57 0 0.0 2.0 0.00 0.00 0.00 60 1015.2
20260504013054 57 0 0.0 2.0 0.00 0.00 0.00 58 1015.0
20260504012526 58 203 0.0 1.0 0.00 0.00 0.00 57 1015.1
20260504012028 58 0 0.0 2.0 0.00 0.00 0.00 56 1015.0
20260504011541 59 213 0.0 3.0 0.00 0.00 0.00 55 1014.9
20260504011028 59 0 0.0 3.0 0.00 0.00 0.00 55 1015.0
20260504010528 60 183 1.0 5.0 0.00 0.00 0.00 54 1014.9
20260504010040 60 181 1.0 5.0 0.00 0.00 0.00 53 1014.8
20260504005529 60 0 1.0 6.0 0.00 0.00 0.00 53 1014.8
20260504005029 61 186 3.0 6.0 0.00 0.00 0.00 52 1014.8
20260504004546 61 203 1.0 5.0 0.00 0.00 0.00 52 1014.8
20260504004029 61 178 1.0 5.0 0.00 0.00 0.00 51 1014.9
20260504003529 62 222 2.0 7.0 0.00 0.00 0.00 50 1015.1
20260504003046 62 221 2.0 7.0 0.00 0.00 0.00 50 1015.0
20260504002526 62 205 3.0 7.0 0.00 0.00 0.00 50 1014.9
20260504002027 63 177 3.0 7.0 0.00 0.00 0.00 49 1014.9
20260504001549 63 193 2.0 8.0 0.00 0.00 0.00 49 1015.2
20260504001027 63 198 2.0 10.0 0.00 0.00 0.00 48 1015.2
20260504000530 63 211 3.0 10.0 0.00 0.00 0.00 48 1015.1
20260504000113 64 214 2.0 10.0 0.00 0.00 0.00 47 1015.2
20260503235525 64 196 3.0 12.0 0.00 0.00 0.00 47 1015.1
20260503235026 64 192 4.0 12.0 0.00 0.00 0.00 47 1015.2
20260503234552 64 211 3.0 12.0 0.00 0.00 0.00 46 1015.2
20260503234029 64 203 3.0 12.0 0.00 0.00 0.00 46 1015.3
20260503233528 64 174 4.0 12.0 0.00 0.00 0.00 46 1015.3
20260503233041 64 188 4.0 9.0 0.00 0.00 0.00 45 1015.4
20260503232530 65 243 4.0 9.0 0.00 0.00 0.00 45 1015.4
20260503232029 65 184 4.0 9.0 0.00 0.00 0.00 45 1015.5
20260503231540 65 219 2.0 11.0 0.00 0.00 0.00 45 1015.7
20260503231030 65 180 3.0 11.0 0.00 0.00 0.00 45 1015.8
20260503230532 65 259 4.0 10.0 0.00 0.00 0.00 44 1015.9
20260503230050 65 219 3.0 9.0 0.00 0.00 0.00 44 1016.1
20260503225528 65 232 4.0 9.0 0.00 0.00 0.00 44 1016.1
20260503225029 65 278 4.0 9.0 0.00 0.00 0.00 42 1016.1
20260503224547 65 231 2.0 9.0 0.00 0.00 0.00 43 1016.2
20260503224028 65 0 3.0 9.0 0.00 0.00 0.00 41 1016.1
20260503223528 66 263 3.0 10.0 0.00 0.00 0.00 42 1016.2
20260503223044 66 288 3.0 17.0 0.00 0.00 0.00 42 1016.3
20260503222529 66 289 3.0 17.0 0.00 0.00 0.00 42 1016.4
20260503222029 66 235 3.0 10.0 0.00 0.00 0.00 39 1016.4
20260503221551 67 202 3.0 10.0 0.00 0.00 0.00 40 1016.3
20260503221026 67 223 4.0 10.0 0.00 0.00 0.00 40 1016.4
20260503220527 67 204 4.0 9.0 0.00 0.00 0.00 41 1016.4
20260503220042 67 188 3.0 8.0 0.00 0.00 0.00 41 1016.5
20260503215527 68 242 3.0 12.0 0.00 0.02 0.00 41 1016.4
20260503215029 68 227 4.0 13.0 0.00 0.02 0.00 41 1016.5
20260503214542 69 242 3.0 13.0 0.00 0.02 0.00 41 1016.5
20260503214028 69 240 5.0 13.0 0.00 0.02 0.00 40 1016.6
20260503213530 70 196 3.0 8.0 0.00 0.02 0.00 39 1016.7
20260503213045 70 230 5.0 8.0 0.00 0.02 0.00 39 1016.9
20260503212529 70 237 2.0 12.0 0.00 0.02 0.00 40 1016.9
20260503212030 70 221 4.0 12.0 0.00 0.02 0.00 39 1017.3
20260503211554 70 229 2.0 13.0 0.00 0.02 0.00 41 1017.4
20260503211029 70 242 3.0 13.0 0.00 0.02 0.00 40 1017.3
20260503210530 70 229 4.0 10.0 0.00 0.02 0.00 40 1017.4
20260503210043 70 183 3.0 11.0 0.00 0.02 0.00 41 1017.4
20260503205530 70 309 2.0 12.0 0.00 0.02 0.00 43 1017.5
20260503205029 70 253 5.0 14.0 0.00 0.02 0.00 41 1017.5
20260503204549 70 231 6.0 14.0 0.00 0.02 0.00 39 1017.7
20260503204029 70 273 2.0 7.0 0.00 0.02 0.00 43 1017.8
20260503203529 70 207 2.0 7.0 0.00 0.02 0.00 43 1017.9
20260503203057 70 286 3.0 7.0 0.00 0.02 0.00 41 1018.0
20260503202531 70 304 2.0 7.0 0.00 0.02 0.00 40 1018.2
20260503202029 70 300 1.0 7.0 0.00 0.02 0.00 42 1018.0
20260503201541 69 248 2.0 9.0 0.00 0.02 0.00 48 1018.3
20260503201030 70 214 3.0 9.0 0.00 0.02 0.00 39 1018.4
20260503200528 70 253 1.0 7.0 0.00 0.02 0.00 41 1018.5
20260503200049 69 186 2.0 7.0 0.00 0.02 0.00 42 1018.7
20260503195528 69 221 3.0 7.0 0.00 0.02 0.00 42 1018.7
20260503195028 69 199 2.0 6.0 0.00 0.02 0.00 44 1018.9
20260503194553 69 209 2.0 7.0 0.00 0.02 0.00 42 1019.0
20260503194028 68 190 3.0 11.0 0.00 0.02 0.00 43 1019.0
20260503193529 68 188 5.0 11.0 0.00 0.02 0.00 43 1019.0
20260503193050 68 211 4.0 11.0 0.00 0.02 0.00 42 1019.2
20260503192529 68 220 4.0 11.0 0.00 0.02 0.00 44 1019.3
20260503192028 68 251 4.0 9.0 0.00 0.02 0.00 45 1019.5
20260503191543 68 225 1.0 12.0 0.00 0.02 0.00 46 1019.4
20260503191029 67 194 4.0 12.0 0.00 0.02 0.00 42 1019.6
20260503190530 67 161 2.0 10.0 0.00 0.02 0.00 44 1019.5
20260503190044 67 184 2.0 10.0 0.00 0.02 0.00 47 1019.6
20260503185526 67 220 5.0 10.0 0.00 0.02 0.00 47 1019.7
20260503185029 67 194 2.0 7.0 0.00 0.02 0.00 43 1019.8
20260503184540 66 257 3.0 8.0 0.00 0.02 0.00 48 1019.8
20260503184029 66 309 2.0 9.0 0.00 0.02 0.00 45 1019.8
20260503183529 65 198 3.0 9.0 0.00 0.02 0.00 46 1019.8
20260503183042 65 182 2.0 11.0 0.00 0.02 0.00 41 1020.0
20260503182528 65 223 3.0 12.0 0.00 0.02 0.00 45 1020.1
20260503182025 65 192 6.0 12.0 0.00 0.02 0.00 42 1020.1
20260503181600 65 169 1.0 6.0 0.00 0.02 0.00 49 1020.2
20260503181025 65 236 3.0 6.0 0.00 0.02 0.00 39 1020.2
20260503180527 65 254 1.0 7.0 0.00 0.02 0.00 53 1020.3
20260503180046 65 184 2.0 7.0 0.00 0.02 0.00 44 1020.4
20260503175528 65 221 2.0 6.0 0.00 0.02 0.00 44 1020.3
20260503175029 65 230 1.0 10.0 0.00 0.02 0.00 43 1020.3
20260503174543 65 225 2.0 10.0 0.00 0.02 0.00 49 1020.5
20260503174027 65 264 3.0 10.0 0.00 0.02 0.00 47 1020.5
20260503173527 65 130 1.0 10.0 0.00 0.02 0.00 49 1020.5
20260503173053 65 253 4.0 10.0 0.00 0.02 0.00 49 1020.6
20260503172526 65 210 3.0 9.0 0.00 0.02 0.00 47 1020.7
20260503172027 64 181 1.0 9.0 0.00 0.02 0.00 47 1020.8
20260503171541 64 157 2.0 9.0 0.00 0.02 0.00 48 1020.8
20260503171028 64 169 3.0 9.0 0.00 0.02 0.00 50 1020.9
20260503170531 63 211 2.0 8.0 0.00 0.02 0.00 46 1020.9
20260503150529 60 229 2.0 8.0 0.00 0.02 0.00 45 1021.9
20260503131029 53 172 0.0 4.0 0.00 0.02 0.00 81 1021.7
20260503130527 52 0 0.0 3.0 0.00 0.02 0.00 84 1021.7
20260503110526 34 0 0.0 0.0 0.00 0.02 0.00 96 1020.7
20260503081541 37 0 0.0 0.0 0.00 0.02 0.00 96 1020.4
20260503081027 37 0 0.0 0.0 0.00 0.02 0.00 96 1020.4
20260503080530 37 0 0.0 0.0 0.00 0.02 0.00 95 1020.4
20260503072526 38 0 0.0 0.0 0.00 0.02 0.00 96 1020.3
20260503072029 38 0 0.0 0.0 0.00 0.02 0.00 96 1020.2
20260503071554 38 0 0.0 0.0 0.00 0.02 0.00 96 1020.2
20260503071030 38 0 0.0 0.0 0.00 0.02 0.00 96 1020.1
20260503070529 38 0 0.0 0.0 0.00 0.02 0.00 96 1020.3